Time,TemperatureF,DewpointF,PressureIn,WindDirection,WindDirectionDegrees,WindSpeedMPH,WindSpeedGustMPH,Humidity,HourlyPrecipIn,Conditions,Clouds,dailyrainin,SoftwareType,DateUTC
2013-06-04 00:04:00,69.9,62.0,29.80,SE,128,2.0,8.0,76,0.00,,---,0.00,VWS V14.01,2013-06-04 05:04:00,
2013-06-04 00:09:00,69.9,62.0,29.80,SE,145,10.0,11.0,76,0.00,,---,0.00,VWS V14.01,2013-06-04 05:09:00,
2013-06-04 00:14:00,69.8,61.9,29.80,SE,138,5.0,11.0,76,0.00,,---,0.00,VWS V14.01,2013-06-04 05:14:00,
2013-06-04 00:19:00,69.8,61.9,29.80,SE,131,8.0,8.0,76,0.00,,---,0.00,VWS V14.01,2013-06-04 05:19:00,
2013-06-04 00:24:00,69.8,61.9,29.80,SE,131,5.0,8.0,76,0.00,,---,0.00,VWS V14.01,2013-06-04 05:24:00,
2013-06-04 00:29:00,69.8,61.9,29.80,East,96,5.0,8.0,76,0.00,,---,0.00,VWS V14.01,2013-06-04 05:29:00,
2013-06-04 00:34:00,69.8,62.3,29.80,SE,146,5.0,9.0,77,0.00,,---,0.00,VWS V14.01,2013-06-04 05:34:00,
2013-06-04 00:39:00,69.8,61.9,29.79,East,93,6.0,13.0,76,0.00,,---,0.00,VWS V14.01,2013-06-04 05:39:00,
2013-06-04 00:44:00,69.8,62.3,29.79,ESE,122,4.0,13.0,77,0.00,,---,0.00,VWS V14.01,2013-06-04 05:44:00,
2013-06-04 00:49:00,69.8,62.3,29.79,SW,236,4.0,9.0,77,0.00,,---,0.00,VWS V14.01,2013-06-04 05:49:00,
2013-06-04 00:54:00,69.8,62.3,29.79,SSE,160,8.0,12.0,77,0.00,,---,0.00,VWS V14.01,2013-06-04 05:54:00,
2013-06-04 00:59:00,69.7,62.2,29.78,SSE,158,4.0,12.0,77,0.00,,---,0.00,VWS V14.01,2013-06-04 05:59:00,
2013-06-04 01:04:00,69.7,62.2,29.78,SE,143,1.0,11.0,77,0.00,,---,0.00,VWS V14.01,2013-06-04 06:04:00,
2013-06-04 01:09:00,69.7,62.2,29.78,SSE,153,2.0,13.0,77,0.00,,---,0.00,VWS V14.01,2013-06-04 06:09:00,
2013-06-04 01:14:00,69.6,62.1,29.77,ESE,108,5.0,13.0,77,0.00,,---,0.00,VWS V14.01,2013-06-04 06:14:00,
2013-06-04 01:19:00,69.5,62.3,29.77,SE,135,4.0,8.0,78,0.00,,---,0.00,VWS V14.01,2013-06-04 06:19:00,
2013-06-04 01:24:00,69.3,62.2,29.77,South,172,3.0,8.0,78,0.00,,---,0.00,VWS V14.01,2013-06-04 06:24:00,
2013-06-04 01:29:00,69.2,62.1,29.77,SE,125,6.0,9.0,78,0.00,,---,0.00,VWS V14.01,2013-06-04 06:29:00,
2013-06-04 01:34:00,69.0,62.2,29.77,ESE,106,3.0,10.0,79,0.00,,---,0.00,VWS V14.01,2013-06-04 06:34:00,
2013-06-04 01:39:00,68.9,62.1,29.77,ESE,113,2.0,10.0,79,0.00,,---,0.00,VWS V14.01,2013-06-04 06:39:00,
2013-06-04 01:44:00,68.8,62.0,29.77,East,92,5.0,10.0,79,0.00,,---,0.00,VWS V14.01,2013-06-04 06:44:00,
2013-06-04 01:49:00,68.8,62.0,29.76,East,96,5.0,6.0,79,0.00,,---,0.00,VWS V14.01,2013-06-04 06:49:00,
2013-06-04 01:54:00,68.7,62.3,29.76,SE,139,3.0,10.0,80,0.00,,---,0.00,VWS V14.01,2013-06-04 06:54:00,
2013-06-04 01:59:00,68.6,62.2,29.77,SSE,162,4.0,10.0,80,0.00,,---,0.00,VWS V14.01,2013-06-04 06:59:00,
2013-06-04 02:04:00,68.7,62.3,29.76,NE,53,4.0,9.0,80,0.00,,---,0.00,VWS V14.01,2013-06-04 07:04:00,
2013-06-04 02:09:00,68.7,62.3,29.76,SE,128,2.0,9.0,80,0.00,,---,0.00,VWS V14.01,2013-06-04 07:09:00,
2013-06-04 02:14:00,68.7,62.3,29.76,SE,131,5.0,9.0,80,0.00,,---,0.00,VWS V14.01,2013-06-04 07:14:00,
2013-06-04 02:19:00,68.8,62.4,29.76,ESE,110,2.0,9.0,80,0.00,,---,0.00,VWS V14.01,2013-06-04 07:19:00,
2013-06-04 02:24:00,68.8,62.4,29.76,ENE,73,6.0,9.0,80,0.00,,---,0.00,VWS V14.01,2013-06-04 07:24:00,
2013-06-04 02:41:00,69.0,62.6,29.73,ENE,60,4.0,13.0,80,0.00,,---,0.00,VWS V14.01,2013-06-04 07:41:00,
2013-06-04 02:46:00,69.0,62.9,29.75,SE,131,2.0,5.0,81,0.00,,---,0.00,VWS V14.01,2013-06-04 07:46:00,
2013-06-04 02:54:00,69.1,63.0,29.76,ESE,121,0.0,7.0,81,0.00,,---,0.00,VWS V14.01,2013-06-04 07:54:00,
2013-06-04 02:59:00,69.2,63.1,29.76,SE,142,0.0,10.0,81,0.00,,---,0.00,VWS V14.01,2013-06-04 07:59:00,
2013-06-04 03:04:00,69.2,63.1,29.77,SE,125,3.0,6.0,81,0.00,,---,0.00,VWS V14.01,2013-06-04 08:04:00,
2013-06-04 03:09:00,69.2,63.1,29.77,SE,141,0.0,6.0,81,0.00,,---,0.00,VWS V14.01,2013-06-04 08:09:00,
2013-06-04 03:14:00,69.3,63.2,29.77,South,183,3.0,7.0,81,0.00,,---,0.00,VWS V14.01,2013-06-04 08:14:00,
2013-06-04 03:19:00,69.3,63.2,29.78,South,170,2.0,6.0,81,0.00,,---,0.00,VWS V14.01,2013-06-04 08:19:00,
2013-06-04 03:24:00,69.3,63.2,29.77,SE,140,0.0,6.0,81,0.00,,---,0.00,VWS V14.01,2013-06-04 08:24:00,
2013-06-04 03:29:00,69.3,63.2,29.77,SE,135,0.0,6.0,81,0.00,,---,0.00,VWS V14.01,2013-06-04 08:29:00,
2013-06-04 03:34:00,69.3,63.2,29.77,SE,135,0.0,1.0,81,0.00,,---,0.00,VWS V14.01,2013-06-04 08:34:00,
2013-06-04 03:39:00,69.2,63.1,29.77,ESE,117,1.0,6.0,81,0.00,,---,0.00,VWS V14.01,2013-06-04 08:39:00,
2013-06-04 03:44:00,69.2,63.1,29.77,SE,138,0.0,6.0,81,0.00,,---,0.00,VWS V14.01,2013-06-04 08:44:00,
2013-06-04 03:49:00,69.2,63.1,29.77,SE,131,1.0,3.0,81,0.00,,---,0.00,VWS V14.01,2013-06-04 08:49:00,
2013-06-04 03:54:00,69.0,63.3,29.76,SE,128,4.0,6.0,82,0.00,,---,0.00,VWS V14.01,2013-06-04 08:54:00,
2013-06-04 03:59:00,69.0,63.3,29.76,ESE,119,2.0,6.0,82,0.00,,---,0.00,VWS V14.01,2013-06-04 08:59:00,
2013-06-04 04:04:00,68.9,63.2,29.76,SE,128,1.0,4.0,82,0.00,,---,0.00,VWS V14.01,2013-06-04 09:04:00,
2013-06-04 04:09:00,68.9,63.2,29.76,SSW,207,4.0,6.0,82,0.00,,---,0.00,VWS V14.01,2013-06-04 09:09:00,
2013-06-04 04:14:00,68.9,63.2,29.77,SE,142,0.0,6.0,82,0.00,,---,0.00,VWS V14.01,2013-06-04 09:14:00,
2013-06-04 04:19:00,68.8,63.1,29.77,SE,131,4.0,8.0,82,0.00,,---,0.00,VWS V14.01,2013-06-04 09:19:00,
2013-06-04 04:24:00,68.8,63.4,29.76,SE,136,4.0,8.0,83,0.00,,---,0.00,VWS V14.01,2013-06-04 09:24:00,
2013-06-04 04:29:00,68.8,63.4,29.76,SE,128,4.0,8.0,83,0.00,,---,0.00,VWS V14.01,2013-06-04 09:29:00,
2013-06-04 04:34:00,68.8,63.4,29.76,SE,141,3.0,6.0,83,0.00,,---,0.00,VWS V14.01,2013-06-04 09:34:00,
2013-06-04 04:39:00,68.8,63.4,29.75,SE,139,1.0,9.0,83,0.00,,---,0.00,VWS V14.01,2013-06-04 09:39:00,
2013-06-04 04:44:00,68.8,63.4,29.76,ESE,117,3.0,9.0,83,0.00,,---,0.00,VWS V14.01,2013-06-04 09:44:00,
2013-06-04 04:49:00,68.9,63.5,29.76,SE,128,3.0,6.0,83,0.00,,---,0.00,VWS V14.01,2013-06-04 09:49:00,
2013-06-04 04:54:00,68.8,63.4,29.77,ESE,121,2.0,7.0,83,0.00,,---,0.00,VWS V14.01,2013-06-04 09:54:00,
2013-06-04 04:58:00,68.9,63.5,29.77,ESE,108,2.0,7.0,83,0.00,,---,0.00,VWS V14.01,2013-06-04 09:58:00,
2013-06-04 05:03:00,68.8,63.4,29.77,SSE,156,2.0,4.0,83,0.00,,---,0.00,VWS V14.01,2013-06-04 10:03:00,
2013-06-04 05:08:00,68.7,63.3,29.79,NW,311,0.0,4.0,83,0.00,,---,0.00,VWS V14.01,2013-06-04 10:08:00,
2013-06-04 05:13:00,68.6,63.6,29.83,NW,314,4.0,5.0,84,0.00,,---,0.00,VWS V14.01,2013-06-04 10:13:00,
2013-06-04 05:18:00,68.5,63.5,29.82,NE,50,2.0,3.0,84,0.00,,---,0.00,VWS V14.01,2013-06-04 10:18:00,
2013-06-04 05:23:00,68.1,63.4,29.82,NW,311,0.0,3.0,85,0.00,,---,0.00,VWS V14.01,2013-06-04 10:23:00,
2013-06-04 05:28:00,67.8,63.1,29.81,ENE,59,2.0,3.0,85,0.00,,---,0.00,VWS V14.01,2013-06-04 10:28:00,
2013-06-04 05:33:00,67.7,63.4,29.81,ENE,65,0.0,1.0,86,0.00,,---,0.00,VWS V14.01,2013-06-04 10:33:00,
2013-06-04 05:38:00,67.6,63.3,29.81,ENE,68,1.0,3.0,86,0.00,,---,0.00,VWS V14.01,2013-06-04 10:38:00,
2013-06-04 05:43:00,67.6,63.3,29.81,ESE,122,1.0,5.0,86,0.00,,---,0.00,VWS V14.01,2013-06-04 10:43:00,
2013-06-04 05:48:00,67.5,63.2,29.81,ESE,110,0.0,3.0,86,0.00,,---,0.00,VWS V14.01,2013-06-04 10:48:00,
2013-06-04 05:53:00,67.5,63.2,29.81,ENE,62,1.0,3.0,86,0.00,,---,0.00,VWS V14.01,2013-06-04 10:53:00,
2013-06-04 05:58:00,67.5,63.2,29.82,ENE,62,1.0,3.0,86,0.00,,---,0.00,VWS V14.01,2013-06-04 10:58:00,
2013-06-04 06:03:00,67.5,63.2,29.82,ENE,62,1.0,1.0,86,0.00,,---,0.00,VWS V14.01,2013-06-04 11:03:00,
2013-06-04 06:08:00,67.5,63.2,29.82,ENE,62,1.0,1.0,86,0.00,,---,0.00,VWS V14.01,2013-06-04 11:08:00,
2013-06-04 06:13:00,67.5,63.2,29.82,ENE,62,1.0,1.0,86,0.00,,---,0.00,VWS V14.01,2013-06-04 11:13:00,
2013-06-04 06:18:00,67.5,63.2,29.82,ENE,62,1.0,1.0,86,0.00,,---,0.00,VWS V14.01,2013-06-04 11:18:00,
2013-06-04 06:23:00,67.5,63.2,29.82,ENE,62,1.0,1.0,86,0.00,,---,0.00,VWS V14.01,2013-06-04 11:23:00,
2013-06-04 06:28:00,67.5,63.2,29.82,ENE,62,1.0,1.0,86,0.00,,---,0.00,VWS V14.01,2013-06-04 11:28:00,
2013-06-04 06:33:00,67.5,63.2,29.82,ENE,62,1.0,1.0,86,0.00,,---,0.00,VWS V14.01,2013-06-04 11:33:00,
2013-06-04 06:38:00,67.5,63.2,29.82,ENE,62,1.0,1.0,86,0.00,,---,0.00,VWS V14.01,2013-06-04 11:38:00,
2013-06-04 06:43:00,67.5,63.2,29.82,ENE,62,1.0,1.0,86,0.00,,---,0.00,VWS V14.01,2013-06-04 11:43:00,
2013-06-04 06:48:00,67.5,63.2,29.83,ENE,62,1.0,1.0,86,0.00,,---,0.00,VWS V14.01,2013-06-04 11:48:00,
2013-06-04 06:53:00,67.5,63.2,29.84,ENE,62,1.0,1.0,86,0.00,,---,0.00,VWS V14.01,2013-06-04 11:53:00,
2013-06-04 06:58:00,67.5,63.2,29.84,ENE,62,1.0,1.0,86,0.00,,---,0.00,VWS V14.01,2013-06-04 11:58:00,
2013-06-04 07:03:00,67.5,63.2,29.85,ENE,62,1.0,1.0,86,0.00,,---,0.00,VWS V14.01,2013-06-04 12:03:00,
2013-06-04 07:08:00,67.5,63.2,29.84,ENE,62,1.0,1.0,86,0.00,,---,0.00,VWS V14.01,2013-06-04 12:08:00,
2013-06-04 07:13:00,67.5,63.2,29.85,ENE,62,1.0,1.0,86,0.00,,---,0.00,VWS V14.01,2013-06-04 12:13:00,
2013-06-04 07:18:00,67.5,63.2,29.85,ENE,62,1.0,1.0,86,0.00,,---,0.00,VWS V14.01,2013-06-04 12:18:00,
2013-06-04 07:23:00,67.5,63.2,29.85,ENE,62,1.0,1.0,86,0.00,,---,0.00,VWS V14.01,2013-06-04 12:23:00,
2013-06-04 07:28:00,67.5,63.2,29.85,ENE,62,1.0,1.0,86,0.00,,---,0.00,VWS V14.01,2013-06-04 12:28:00,
2013-06-04 07:33:00,66.7,63.0,29.85,ESE,102,2.0,2.0,88,0.00,,---,0.00,VWS V14.01,2013-06-04 12:33:00,
2013-06-04 07:38:00,66.7,63.0,29.86,NE,47,0.0,3.0,88,0.00,,---,0.00,VWS V14.01,2013-06-04 12:38:00,
2013-06-04 07:43:00,66.7,63.0,29.86,NE,42,0.0,3.0,88,0.00,,---,0.00,VWS V14.01,2013-06-04 12:43:00,
2013-06-04 07:48:00,66.6,62.9,29.86,NE,45,1.0,4.0,88,0.00,,---,0.00,VWS V14.01,2013-06-04 12:48:00,
2013-06-04 07:53:00,66.6,62.9,29.86,ENE,63,3.0,5.0,88,0.00,,---,0.00,VWS V14.01,2013-06-04 12:53:00,
2013-06-04 07:58:00,66.5,62.8,29.87,ENE,60,2.0,5.0,88,0.00,,---,0.00,VWS V14.01,2013-06-04 12:58:00,
2013-06-04 08:03:00,66.5,63.2,29.87,NE,39,1.0,4.0,89,0.00,,---,0.00,VWS V14.01,2013-06-04 13:03:00,
2013-06-04 08:08:00,66.2,63.2,29.87,East,100,0.0,4.0,90,0.03,,---,0.03,VWS V14.01,2013-06-04 13:08:00,
2013-06-04 08:13:00,66.0,63.3,29.87,East,86,1.0,5.0,91,0.07,,---,0.07,VWS V14.01,2013-06-04 13:13:00,
2013-06-04 08:18:00,65.8,63.4,29.87,NNE,33,1.0,2.0,92,0.09,,---,0.09,VWS V14.01,2013-06-04 13:18:00,
2013-06-04 08:23:00,65.7,63.6,29.87,East,79,1.0,3.0,93,0.12,,---,0.12,VWS V14.01,2013-06-04 13:23:00,
2013-06-04 08:28:00,65.8,63.7,29.87,SSE,161,0.0,4.0,93,0.14,,---,0.14,VWS V14.01,2013-06-04 13:28:00,
2013-06-04 08:33:00,65.8,63.7,29.87,ENE,77,0.0,3.0,93,0.15,,---,0.15,VWS V14.01,2013-06-04 13:33:00,
2013-06-04 08:38:00,65.8,63.7,29.86,ENE,68,2.0,4.0,93,0.15,,---,0.15,VWS V14.01,2013-06-04 13:38:00,
2013-06-04 08:43:00,65.8,64.0,29.86,ENE,59,0.0,4.0,94,0.15,,---,0.15,VWS V14.01,2013-06-04 13:43:00,
2013-06-04 08:48:00,65.8,63.7,29.86,NE,50,0.0,2.0,93,0.15,,---,0.15,VWS V14.01,2013-06-04 13:48:00,
2013-06-04 08:53:00,65.8,64.0,29.86,NE,53,2.0,3.0,94,0.15,,---,0.15,VWS V14.01,2013-06-04 13:53:00,
2013-06-04 08:58:00,66.0,64.2,29.85,SE,124,1.0,3.0,94,0.15,,---,0.15,VWS V14.01,2013-06-04 13:58:00,
2013-06-04 09:03:00,66.0,64.2,29.86,ESE,118,2.0,2.0,94,0.15,,---,0.15,VWS V14.01,2013-06-04 14:03:00,
2013-06-04 09:08:00,66.1,64.3,29.86,SSE,159,0.0,3.0,94,0.15,,---,0.15,VWS V14.01,2013-06-04 14:08:00,
2013-06-04 09:13:00,66.1,64.3,29.86,SE,143,1.0,4.0,94,0.15,,---,0.15,VWS V14.01,2013-06-04 14:13:00,
2013-06-04 09:18:00,66.2,64.4,29.86,SE,145,0.0,4.0,94,0.06,,---,0.15,VWS V14.01,2013-06-04 14:18:00,
2013-06-04 09:23:00,66.3,64.5,29.86,ESE,118,0.0,6.0,94,0.06,,---,0.15,VWS V14.01,2013-06-04 14:23:00,
2013-06-04 09:28:00,66.3,64.5,29.86,East,101,5.0,6.0,94,0.07,,---,0.16,VWS V14.01,2013-06-04 14:28:00,
2013-06-04 09:33:00,66.3,64.5,29.86,SE,135,6.0,8.0,94,0.01,,---,0.16,VWS V14.01,2013-06-04 14:33:00,
2013-06-04 09:38:00,66.4,64.3,29.88,ENE,58,3.0,8.0,93,0.01,,---,0.16,VWS V14.01,2013-06-04 14:38:00,
2013-06-04 09:43:00,66.4,64.3,29.88,SSE,148,0.0,8.0,93,0.02,,---,0.17,VWS V14.01,2013-06-04 14:43:00,
2013-06-04 09:48:00,66.5,64.7,29.88,SSE,155,0.0,4.0,94,0.02,,---,0.17,VWS V14.01,2013-06-04 14:48:00,
2013-06-04 09:53:00,66.6,64.8,29.86,SE,146,6.0,9.0,94,0.02,,---,0.17,VWS V14.01,2013-06-04 14:53:00,
2013-06-04 09:58:00,66.7,64.9,29.87,SW,225,0.0,9.0,94,0.02,,---,0.17,VWS V14.01,2013-06-04 14:58:00,
2013-06-04 10:03:00,66.8,65.0,29.90,SW,225,2.0,6.0,94,0.02,,---,0.17,VWS V14.01,2013-06-04 15:03:00,
2013-06-04 10:08:00,66.9,65.1,29.89,SSE,148,0.0,6.0,94,0.02,,---,0.17,VWS V14.01,2013-06-04 15:08:00,
2013-06-04 10:13:00,67.3,65.5,29.89,SSE,158,3.0,6.0,94,0.02,,---,0.17,VWS V14.01,2013-06-04 15:13:00,
2013-06-04 10:18:00,67.7,65.9,29.88,SE,141,4.0,6.0,94,0.02,,---,0.17,VWS V14.01,2013-06-04 15:18:00,
2013-06-04 10:23:00,68.2,66.1,29.88,SSW,198,4.0,6.0,93,0.02,,---,0.17,VWS V14.01,2013-06-04 15:23:00,
2013-06-04 10:28:00,68.8,66.7,29.88,SE,146,0.0,6.0,93,0.02,,---,0.17,VWS V14.01,2013-06-04 15:28:00,
2013-06-04 10:33:00,69.2,66.8,29.89,SW,215,3.0,7.0,92,0.01,,---,0.17,VWS V14.01,2013-06-04 15:33:00,
2013-06-04 10:38:00,69.4,66.7,29.90,SSW,212,3.0,7.0,91,0.01,,---,0.17,VWS V14.01,2013-06-04 15:38:00,
2013-06-04 10:43:00,69.5,66.8,29.90,SW,236,2.0,7.0,91,0.01,,---,0.17,VWS V14.01,2013-06-04 15:43:00,
2013-06-04 10:48:00,69.5,66.4,29.89,SSE,156,0.0,3.0,90,0.00,,---,0.17,VWS V14.01,2013-06-04 15:48:00,
2013-06-04 10:52:00,69.4,66.3,29.90,SE,131,0.0,5.0,90,0.01,,---,0.18,VWS V14.01,2013-06-04 15:52:00,
2013-06-04 10:57:00,69.2,66.2,29.90,SW,214,0.0,5.0,90,0.01,,---,0.18,VWS V14.01,2013-06-04 15:57:00,
2013-06-04 11:02:00,69.2,66.5,29.89,SSW,205,2.0,6.0,91,0.03,,---,0.20,VWS V14.01,2013-06-04 16:02:00,
2013-06-04 11:07:00,69.0,66.3,29.89,South,176,4.0,7.0,91,0.04,,---,0.21,VWS V14.01,2013-06-04 16:07:00,
2013-06-04 11:12:00,68.9,66.2,29.88,SSE,149,5.0,8.0,91,0.04,,---,0.21,VWS V14.01,2013-06-04 16:12:00,
2013-06-04 11:17:00,69.1,66.4,29.89,SSE,160,2.0,6.0,91,0.04,,---,0.21,VWS V14.01,2013-06-04 16:17:00,
2013-06-04 11:22:00,69.3,66.6,29.89,SW,224,0.0,6.0,91,0.04,,---,0.21,VWS V14.01,2013-06-04 16:22:00,
2013-06-04 11:27:00,69.7,67.3,29.89,SW,224,3.0,6.0,92,0.04,,---,0.21,VWS V14.01,2013-06-04 16:27:00,
2013-06-04 11:32:00,70.3,67.9,29.88,WSW,241,5.0,6.0,92,0.04,,---,0.21,VWS V14.01,2013-06-04 16:32:00,
2013-06-04 11:37:00,71.2,68.1,29.88,SSE,150,4.0,9.0,90,0.04,,---,0.21,VWS V14.01,2013-06-04 16:37:00,
2013-06-04 11:42:00,71.9,68.5,29.88,SSW,211,1.0,12.0,89,0.04,,---,0.21,VWS V14.01,2013-06-04 16:42:00,
2013-06-04 11:47:00,72.7,68.6,29.88,SW,215,3.0,8.0,87,0.04,,---,0.21,VWS V14.01,2013-06-04 16:47:00,
2013-06-04 11:52:00,73.6,68.8,29.88,SSW,194,9.0,10.0,85,0.04,,---,0.21,VWS V14.01,2013-06-04 16:52:00,
2013-06-04 11:57:00,74.3,69.5,29.88,South,191,4.0,10.0,85,0.04,,---,0.21,VWS V14.01,2013-06-04 16:57:00,
2013-06-04 12:02:00,75.1,69.6,29.88,SSW,210,3.0,6.0,83,0.02,,---,0.21,VWS V14.01,2013-06-04 17:02:00,
2013-06-04 12:07:00,75.7,69.1,29.88,SSE,163,3.0,8.0,80,0.02,,---,0.21,VWS V14.01,2013-06-04 17:07:00,
2013-06-04 12:12:00,76.5,69.1,29.88,SW,231,1.0,8.0,78,0.02,,---,0.21,VWS V14.01,2013-06-04 17:12:00,
2013-06-04 12:17:00,77.3,68.4,29.88,SW,229,3.0,7.0,74,0.00,,---,0.21,VWS V14.01,2013-06-04 17:17:00,
2013-06-04 12:22:00,77.8,68.1,29.88,West,260,4.0,9.0,72,0.00,,---,0.21,VWS V14.01,2013-06-04 17:22:00,
2013-06-04 12:27:00,78.0,67.0,29.88,South,170,5.0,10.0,69,0.00,,---,0.21,VWS V14.01,2013-06-04 17:27:00,
2013-06-04 12:32:00,78.4,66.6,29.88,SW,226,1.0,6.0,67,0.00,,---,0.21,VWS V14.01,2013-06-04 17:32:00,
2013-06-04 12:37:00,78.6,67.6,29.87,SW,215,6.0,8.0,69,0.00,,---,0.21,VWS V14.01,2013-06-04 17:37:00,
2013-06-04 12:42:00,79.1,66.8,29.87,SSW,197,4.0,8.0,66,0.00,,---,0.21,VWS V14.01,2013-06-04 17:42:00,
2013-06-04 12:47:00,79.4,66.2,29.87,WSW,242,0.0,0.0,64,0.00,,---,0.21,VWS V14.01,2013-06-04 17:47:00,
2013-06-04 12:52:00,79.6,65.4,29.87,SSE,152,2.0,6.0,62,0.00,,---,0.21,VWS V14.01,2013-06-04 17:52:00,
2013-06-04 12:57:00,80.1,66.8,29.87,SW,233,3.0,7.0,64,0.00,,---,0.21,VWS V14.01,2013-06-04 17:57:00,
2013-06-04 13:02:00,80.4,66.2,29.87,SW,219,2.0,4.0,62,0.00,,---,0.21,VWS V14.01,2013-06-04 18:02:00,
2013-06-04 13:07:00,81.2,66.9,29.87,SW,235,6.0,10.0,62,0.00,,---,0.21,VWS V14.01,2013-06-04 18:07:00,
2013-06-04 13:12:00,81.5,67.2,29.87,SSE,167,8.0,12.0,62,0.00,,---,0.21,VWS V14.01,2013-06-04 18:12:00,
2013-06-04 13:17:00,81.2,66.5,29.88,SW,229,8.0,11.0,61,0.00,,---,0.21,VWS V14.01,2013-06-04 18:17:00,
2013-06-04 13:22:00,80.9,65.2,29.87,SW,218,8.0,11.0,59,0.00,,---,0.21,VWS V14.01,2013-06-04 18:22:00,
2013-06-04 13:27:00,81.0,65.8,29.87,SSW,207,9.0,11.0,60,0.00,,---,0.21,VWS V14.01,2013-06-04 18:27:00,
2013-06-04 13:32:00,81.1,65.9,29.87,WSW,253,5.0,8.0,60,0.00,,---,0.21,VWS V14.01,2013-06-04 18:32:00,
2013-06-04 13:37:00,81.6,65.9,29.86,South,176,2.0,8.0,59,0.00,,---,0.21,VWS V14.01,2013-06-04 18:37:00,
2013-06-04 13:42:00,82.1,65.4,29.87,SW,225,6.0,8.0,57,0.00,,---,0.21,VWS V14.01,2013-06-04 18:42:00,
2013-06-04 13:47:00,82.2,65.0,29.86,SW,218,3.0,5.0,56,0.00,,---,0.21,VWS V14.01,2013-06-04 18:47:00,
2013-06-04 13:52:00,82.2,63.4,29.86,SSW,194,6.0,11.0,53,0.00,,---,0.21,VWS V14.01,2013-06-04 18:52:00,
2013-06-04 13:57:00,81.9,63.6,29.86,SW,217,5.0,13.0,54,0.00,,---,0.21,VWS V14.01,2013-06-04 18:57:00,
2013-06-04 14:02:00,81.8,63.5,29.86,SW,228,0.0,5.0,54,0.00,,---,0.21,VWS V14.01,2013-06-04 19:02:00,
2013-06-04 14:07:00,82.2,64.4,29.86,SW,233,5.0,9.0,55,0.00,,---,0.21,VWS V14.01,2013-06-04 19:07:00,
2013-06-04 14:12:00,82.3,64.0,29.86,West,267,3.0,10.0,54,0.00,,---,0.21,VWS V14.01,2013-06-04 19:12:00,
2013-06-04 14:17:00,82.5,64.2,29.86,SW,215,2.0,7.0,54,0.00,,---,0.21,VWS V14.01,2013-06-04 19:17:00,
2013-06-04 14:22:00,82.8,63.9,29.86,SSE,152,0.0,7.0,53,0.00,,---,0.21,VWS V14.01,2013-06-04 19:22:00,
2013-06-04 14:27:00,83.0,64.1,29.86,SSE,166,0.0,7.0,53,0.00,,---,0.21,VWS V14.01,2013-06-04 19:27:00,
2013-06-04 14:32:00,83.0,64.1,29.86,WSW,245,1.0,4.0,53,0.00,,---,0.21,VWS V14.01,2013-06-04 19:32:00,
2013-06-04 14:37:00,83.2,63.8,29.86,SW,236,3.0,8.0,52,0.00,,---,0.21,VWS V14.01,2013-06-04 19:37:00,
2013-06-04 14:42:00,83.5,64.6,29.86,WSW,250,0.0,8.0,53,0.00,,---,0.21,VWS V14.01,2013-06-04 19:42:00,
2013-06-04 14:47:00,83.7,64.8,29.86,WNW,293,3.0,8.0,53,0.00,,---,0.21,VWS V14.01,2013-06-04 19:47:00,
2013-06-04 14:52:00,83.8,64.9,29.86,SW,226,0.0,8.0,53,0.00,,---,0.21,VWS V14.01,2013-06-04 19:52:00,
2013-06-04 14:57:00,84.4,64.3,29.86,WSW,244,0.0,8.0,51,0.00,,---,0.21,VWS V14.01,2013-06-04 19:57:00,
2013-06-04 15:02:00,84.6,65.1,29.86,NW,318,0.0,1.0,52,0.00,,---,0.21,VWS V14.01,2013-06-04 20:02:00,
2013-06-04 15:07:00,85.0,65.4,29.86,SSW,208,0.0,2.0,52,0.00,,---,0.21,VWS V14.01,2013-06-04 20:07:00,
2013-06-04 15:12:00,85.4,62.9,29.85,WNW,296,0.0,4.0,47,0.00,,---,0.21,VWS V14.01,2013-06-04 20:12:00,
2013-06-04 15:17:00,85.4,64.1,29.86,WSW,252,0.0,1.0,49,0.00,,---,0.21,VWS V14.01,2013-06-04 20:17:00,
2013-06-04 15:22:00,85.6,64.3,29.85,SW,232,0.0,1.0,49,0.00,,---,0.21,VWS V14.01,2013-06-04 20:22:00,
2013-06-04 15:27:00,85.6,64.8,29.85,WNW,293,0.0,1.0,50,0.00,,---,0.21,VWS V14.01,2013-06-04 20:27:00,
2013-06-04 15:32:00,84.9,64.2,29.85,WSW,239,0.0,0.0,50,0.00,,---,0.21,VWS V14.01,2013-06-04 20:32:00,
2013-06-04 15:37:00,85.4,64.7,29.85,West,268,0.0,1.0,50,0.00,,---,0.21,VWS V14.01,2013-06-04 20:37:00,
2013-06-04 15:42:00,85.3,66.2,29.85,West,269,0.0,3.0,53,0.00,,---,0.21,VWS V14.01,2013-06-04 20:42:00,
2013-06-04 15:47:00,84.7,65.1,29.85,NW,311,5.0,7.0,52,0.00,,---,0.21,VWS V14.01,2013-06-04 20:47:00,
2013-06-04 15:52:00,84.6,65.6,29.85,NNW,332,4.0,8.0,53,0.00,,---,0.21,VWS V14.01,2013-06-04 20:52:00,
2013-06-04 15:57:00,84.1,65.7,29.85,ENE,77,1.0,8.0,54,0.00,,---,0.21,VWS V14.01,2013-06-04 20:57:00,
2013-06-04 16:02:00,84.2,64.7,29.85,NW,325,3.0,6.0,52,0.00,,---,0.21,VWS V14.01,2013-06-04 21:02:00,
2013-06-04 16:07:00,84.3,65.9,29.85,WNW,290,3.0,6.0,54,0.00,,---,0.21,VWS V14.01,2013-06-04 21:07:00,
2013-06-04 16:12:00,84.3,65.3,29.85,NW,315,5.0,6.0,53,0.00,,---,0.21,VWS V14.01,2013-06-04 21:12:00,
2013-06-04 16:17:00,84.4,65.4,29.85,West,280,0.0,1.0,53,0.00,,---,0.21,VWS V14.01,2013-06-04 21:17:00,
2013-06-04 16:22:00,84.8,65.2,29.85,West,281,1.0,4.0,52,0.00,,---,0.21,VWS V14.01,2013-06-04 21:22:00,
2013-06-04 16:27:00,84.8,64.7,29.86,North,351,4.0,5.0,51,0.00,,---,0.21,VWS V14.01,2013-06-04 21:27:00,
2013-06-04 16:32:00,85.0,64.9,29.85,SW,236,0.0,2.0,51,0.00,,---,0.21,VWS V14.01,2013-06-04 21:32:00,
2013-06-04 16:37:00,85.8,65.6,29.85,NE,56,0.0,2.0,51,0.00,,---,0.21,VWS V14.01,2013-06-04 21:37:00,
2013-06-04 16:42:00,86.0,65.2,29.85,WNW,294,0.0,4.0,50,0.00,,---,0.21,VWS V14.01,2013-06-04 21:42:00,
2013-06-04 16:47:00,85.6,64.3,29.85,NW,321,3.0,5.0,49,0.00,,---,0.21,VWS V14.01,2013-06-04 21:47:00,
2013-06-04 16:52:00,85.2,64.5,29.85,WNW,286,0.0,5.0,50,0.00,,---,0.21,VWS V14.01,2013-06-04 21:52:00,
2013-06-04 16:57:00,85.2,64.5,29.85,NW,316,0.0,5.0,50,0.00,,---,0.21,VWS V14.01,2013-06-04 21:57:00,
2013-06-04 17:02:00,85.1,63.8,29.85,NW,309,1.0,4.0,49,0.00,,---,0.21,VWS V14.01,2013-06-04 22:02:00,
2013-06-04 17:07:00,85.1,63.8,29.85,WNW,300,0.0,4.0,49,0.00,,---,0.21,VWS V14.01,2013-06-04 22:07:00,
2013-06-04 17:12:00,85.7,64.9,29.85,NNW,328,2.0,4.0,50,0.00,,---,0.21,VWS V14.01,2013-06-04 22:12:00,
2013-06-04 17:17:00,86.3,64.3,29.85,NE,44,0.0,3.0,48,0.00,,---,0.21,VWS V14.01,2013-06-04 22:17:00,
2013-06-04 17:22:00,86.1,64.1,29.85,SE,128,1.0,3.0,48,0.00,,---,0.21,VWS V14.01,2013-06-04 22:22:00,
2013-06-04 17:27:00,86.8,64.8,29.85,South,169,0.0,3.0,48,0.00,,---,0.21,VWS V14.01,2013-06-04 22:27:00,
2013-06-04 17:32:00,87.2,64.5,29.85,West,259,0.0,0.0,47,0.00,,---,0.21,VWS V14.01,2013-06-04 22:32:00,
2013-06-04 17:37:00,87.2,64.5,29.85,NNE,12,1.0,1.0,47,0.00,,---,0.21,VWS V14.01,2013-06-04 22:37:00,
2013-06-04 17:42:00,86.6,64.0,29.85,NW,305,0.0,3.0,47,0.00,,---,0.21,VWS V14.01,2013-06-04 22:42:00,
2013-06-04 17:47:00,86.5,65.1,29.85,WNW,295,0.0,2.0,49,0.00,,---,0.21,VWS V14.01,2013-06-04 22:47:00,
2013-06-04 17:52:00,86.5,64.5,29.85,NE,40,1.0,2.0,48,0.00,,---,0.21,VWS V14.01,2013-06-04 22:52:00,
2013-06-04 17:57:00,86.6,64.0,29.85,NNE,17,0.0,2.0,47,0.00,,---,0.21,VWS V14.01,2013-06-04 22:57:00,
2013-06-04 18:02:00,86.9,64.9,29.85,NW,315,0.0,0.0,48,0.00,,---,0.21,VWS V14.01,2013-06-04 23:02:00,
2013-06-04 18:07:00,86.8,64.8,29.85,East,91,0.0,3.0,48,0.00,,---,0.21,VWS V14.01,2013-06-04 23:07:00,
2013-06-04 18:12:00,86.9,64.3,29.85,NE,55,0.0,4.0,47,0.00,,---,0.21,VWS V14.01,2013-06-04 23:12:00,
2013-06-04 18:17:00,86.7,64.7,29.85,ESE,119,0.0,3.0,48,0.00,,---,0.21,VWS V14.01,2013-06-04 23:17:00,
2013-06-04 18:22:00,86.8,64.8,29.85,ENE,64,2.0,5.0,48,0.00,,---,0.21,VWS V14.01,2013-06-04 23:22:00,
2013-06-04 18:27:00,86.2,64.2,29.85,NE,49,1.0,5.0,48,0.00,,---,0.21,VWS V14.01,2013-06-04 23:27:00,
2013-06-04 18:32:00,86.4,64.4,29.84,East,79,6.0,7.0,48,0.00,,---,0.21,VWS V14.01,2013-06-04 23:32:00,
2013-06-04 18:37:00,86.6,64.0,29.85,SE,136,0.0,7.0,47,0.00,,---,0.21,VWS V14.01,2013-06-04 23:37:00,
2013-06-04 18:42:00,86.8,64.8,29.85,NNE,30,1.0,7.0,48,0.00,,---,0.21,VWS V14.01,2013-06-04 23:42:00,
2013-06-04 18:47:00,86.5,64.5,29.85,ENE,63,5.0,5.0,48,0.00,,---,0.21,VWS V14.01,2013-06-04 23:47:00,
2013-06-04 18:52:00,86.1,64.7,29.85,ENE,68,3.0,5.0,49,0.00,,---,0.21,VWS V14.01,2013-06-04 23:52:00,
2013-06-04 18:57:00,85.7,64.4,29.85,NE,44,1.0,5.0,49,0.00,,---,0.21,VWS V14.01,2013-06-04 23:57:00,
2013-06-04 19:02:00,85.6,64.8,29.85,SSE,163,0.0,3.0,50,0.00,,---,0.21,VWS V14.01,2013-06-05 00:02:00,
2013-06-04 19:07:00,85.9,64.5,29.85,South,169,0.0,4.0,49,0.00,,---,0.21,VWS V14.01,2013-06-05 00:07:00,
2013-06-04 19:12:00,85.6,64.3,29.85,East,79,2.0,5.0,49,0.00,,---,0.21,VWS V14.01,2013-06-05 00:12:00,
2013-06-04 19:17:00,85.2,63.9,29.85,East,82,3.0,5.0,49,0.00,,---,0.21,VWS V14.01,2013-06-05 00:17:00,
2013-06-04 19:22:00,85.1,63.2,29.85,ENE,65,2.0,5.0,48,0.00,,---,0.21,VWS V14.01,2013-06-05 00:22:00,
2013-06-04 19:27:00,84.8,63.5,29.85,ESE,115,1.0,5.0,49,0.00,,---,0.21,VWS V14.01,2013-06-05 00:27:00,
2013-06-04 19:32:00,84.7,63.5,29.85,ENE,65,0.0,2.0,49,0.00,,---,0.21,VWS V14.01,2013-06-05 00:32:00,
2013-06-04 19:37:00,84.7,64.6,29.86,ESE,122,0.0,4.0,51,0.00,,---,0.21,VWS V14.01,2013-06-05 00:37:00,
2013-06-04 19:42:00,84.5,65.0,29.85,SE,134,1.0,4.0,52,0.00,,---,0.21,VWS V14.01,2013-06-05 00:42:00,
2013-06-04 19:47:00,84.5,65.0,29.85,SE,132,0.0,1.0,52,0.00,,---,0.21,VWS V14.01,2013-06-05 00:47:00,
2013-06-04 19:52:00,84.5,66.1,29.86,ESE,122,5.0,7.0,54,0.00,,---,0.21,VWS V14.01,2013-06-05 00:52:00,
2013-06-04 19:57:00,83.7,67.9,29.86,SSE,150,3.0,8.0,59,0.00,,---,0.21,VWS V14.01,2013-06-05 00:57:00,
2013-06-04 20:02:00,83.0,68.2,29.86,SE,142,2.0,6.0,61,0.00,,---,0.21,VWS V14.01,2013-06-05 01:02:00,
2013-06-04 20:07:00,82.4,68.6,29.86,ESE,121,3.0,6.0,63,0.00,,---,0.21,VWS V14.01,2013-06-05 01:07:00,
2013-06-04 20:12:00,81.9,69.0,29.86,SE,145,1.0,7.0,65,0.00,,---,0.21,VWS V14.01,2013-06-05 01:12:00,
2013-06-04 20:17:00,81.4,69.0,29.86,SE,134,4.0,9.0,66,0.00,,---,0.21,VWS V14.01,2013-06-05 01:17:00,
2013-06-04 20:22:00,81.1,69.1,29.86,SE,145,1.0,9.0,67,0.00,,---,0.21,VWS V14.01,2013-06-05 01:22:00,
2013-06-04 20:26:00,80.8,69.3,29.86,SE,128,4.0,9.0,68,0.00,,---,0.21,VWS V14.01,2013-06-05 01:26:00,
2013-06-04 20:31:00,80.4,69.3,29.86,ESE,107,1.0,5.0,69,0.00,,---,0.21,VWS V14.01,2013-06-05 01:31:00,
2013-06-04 20:36:00,80.0,68.9,29.86,East,98,3.0,8.0,69,0.00,,---,0.21,VWS V14.01,2013-06-05 01:36:00,
2013-06-04 20:41:00,79.7,69.5,29.87,East,80,4.0,8.0,71,0.00,,---,0.21,VWS V14.01,2013-06-05 01:41:00,
2013-06-04 20:46:00,79.2,69.4,29.87,SE,124,3.0,3.0,72,0.00,,---,0.21,VWS V14.01,2013-06-05 01:46:00,
2013-06-04 20:51:00,78.7,69.3,29.87,NE,55,5.0,5.0,73,0.00,,---,0.21,VWS V14.01,2013-06-05 01:51:00,
2013-06-04 20:56:00,78.3,69.3,29.87,ESE,121,2.0,8.0,74,0.00,,---,0.21,VWS V14.01,2013-06-05 01:56:00,
2013-06-04 21:01:00,77.8,68.9,29.87,ESE,120,1.0,5.0,74,0.00,,---,0.21,VWS V14.01,2013-06-05 02:01:00,
2013-06-04 21:07:00,77.5,69.0,29.87,South,181,5.0,10.0,75,0.00,,---,0.21,VWS V14.01,2013-06-05 02:07:00,
2013-06-04 21:12:00,77.2,69.1,29.88,SSE,148,3.0,10.0,76,0.00,,---,0.21,VWS V14.01,2013-06-05 02:12:00,
2013-06-04 21:16:00,76.9,68.8,29.88,SE,125,6.0,6.0,76,0.00,,---,0.21,VWS V14.01,2013-06-05 02:16:00,
2013-06-04 21:21:00,76.7,68.9,29.88,ESE,116,2.0,9.0,77,0.00,,---,0.21,VWS V14.01,2013-06-05 02:21:00,
2013-06-04 21:26:00,76.6,68.9,29.88,SSE,149,6.0,9.0,77,0.00,,---,0.21,VWS V14.01,2013-06-05 02:26:00,
2013-06-04 21:31:00,76.4,69.0,29.89,SE,145,5.0,8.0,78,0.00,,---,0.21,VWS V14.01,2013-06-05 02:31:00,
2013-06-04 21:36:00,76.2,68.8,29.89,SE,139,6.0,9.0,78,0.00,,---,0.21,VWS V14.01,2013-06-05 02:36:00,
2013-06-04 21:41:00,76.1,68.8,29.89,SE,139,5.0,10.0,78,0.00,,---,0.21,VWS V14.01,2013-06-05 02:41:00,
2013-06-04 21:46:00,75.9,68.6,29.90,SSE,160,4.0,8.0,78,0.00,,---,0.21,VWS V14.01,2013-06-05 02:46:00,
2013-06-04 21:51:00,75.7,68.4,29.90,SE,138,4.0,8.0,78,0.00,,---,0.21,VWS V14.01,2013-06-05 02:51:00,
2013-06-04 21:56:00,75.6,68.3,29.90,SE,134,2.0,13.0,78,0.00,,---,0.21,VWS V14.01,2013-06-05 02:56:00,
2013-06-04 22:01:00,75.6,68.3,29.90,ESE,103,3.0,5.0,78,0.00,,---,0.21,VWS V14.01,2013-06-05 03:01:00,
2013-06-04 22:06:00,75.4,68.1,29.90,SE,143,3.0,8.0,78,0.00,,---,0.21,VWS V14.01,2013-06-05 03:06:00,
2013-06-04 22:11:00,75.2,67.9,29.91,SSE,156,6.0,9.0,78,0.00,,---,0.21,VWS V14.01,2013-06-05 03:11:00,
2013-06-04 22:16:00,75.0,68.1,29.91,SSE,161,1.0,6.0,79,0.00,,---,0.21,VWS V14.01,2013-06-05 03:16:00,
2013-06-04 22:21:00,74.7,67.8,29.91,ESE,110,2.0,9.0,79,0.00,,---,0.21,VWS V14.01,2013-06-05 03:21:00,
2013-06-04 22:26:00,74.5,67.6,29.92,SE,138,2.0,9.0,79,0.00,,---,0.21,VWS V14.01,2013-06-05 03:26:00,
2013-06-04 22:31:00,74.4,67.5,29.92,ESE,108,1.0,5.0,79,0.00,,---,0.21,VWS V14.01,2013-06-05 03:31:00,
2013-06-04 22:36:00,74.2,67.6,29.92,SE,124,3.0,8.0,80,0.00,,---,0.21,VWS V14.01,2013-06-05 03:36:00,
2013-06-04 22:41:00,74.0,67.4,29.92,ESE,112,3.0,9.0,80,0.00,,---,0.21,VWS V14.01,2013-06-05 03:41:00,
2013-06-04 22:46:00,73.8,67.6,29.92,SE,128,2.0,5.0,81,0.00,,---,0.21,VWS V14.01,2013-06-05 03:46:00,
2013-06-04 22:51:00,73.7,67.5,29.93,ESE,113,1.0,5.0,81,0.00,,---,0.21,VWS V14.01,2013-06-05 03:51:00,
2013-06-04 22:56:00,73.7,67.5,29.93,ENE,65,3.0,5.0,81,0.00,,---,0.21,VWS V14.01,2013-06-05 03:56:00,
2013-06-04 23:01:00,73.6,67.4,29.93,SSE,148,0.0,0.0,81,0.00,,---,0.21,VWS V14.01,2013-06-05 04:01:00,
2013-06-04 23:03:00,73.5,67.3,29.94,SE,135,0.0,2.0,81,0.00,,---,0.21,VWS V14.01,2013-06-05 04:03:00,
2013-06-04 23:04:00,73.4,67.2,29.94,SE,134,0.0,2.0,81,0.00,,---,0.21,VWS V14.01,2013-06-05 04:04:00,
2013-06-04 23:06:00,73.4,67.6,29.94,ESE,110,1.0,2.0,82,0.00,,---,0.21,VWS V14.01,2013-06-05 04:06:00,
2013-06-04 23:11:00,73.2,67.4,29.94,ENE,57,3.0,4.0,82,0.00,,---,0.21,VWS V14.01,2013-06-05 04:11:00,
2013-06-04 23:16:00,73.1,67.3,29.94,South,169,1.0,2.0,82,0.00,,---,0.21,VWS V14.01,2013-06-05 04:16:00,
2013-06-04 23:21:00,72.9,67.4,29.94,ESE,113,0.0,7.0,83,0.00,,---,0.21,VWS V14.01,2013-06-05 04:21:00,
2013-06-04 23:26:00,72.6,67.2,29.94,SE,134,1.0,7.0,83,0.00,,---,0.21,VWS V14.01,2013-06-05 04:26:00,
2013-06-04 23:31:00,72.5,67.1,29.94,SE,128,3.0,3.0,83,0.00,,---,0.21,VWS V14.01,2013-06-05 04:31:00,
2013-06-04 23:36:00,72.4,67.3,29.93,South,186,7.0,7.0,84,0.00,,---,0.21,VWS V14.01,2013-06-05 04:36:00,
2013-06-04 23:41:00,72.2,67.1,29.92,ESE,107,2.0,7.0,84,0.00,,---,0.21,VWS V14.01,2013-06-05 04:41:00,
2013-06-04 23:46:00,72.0,66.9,29.92,SE,134,2.0,6.0,84,0.00,,---,0.21,VWS V14.01,2013-06-05 04:46:00,
2013-06-04 23:51:00,71.8,66.7,29.92,SSE,155,2.0,6.0,84,0.00,,---,0.21,VWS V14.01,2013-06-05 04:51:00,
2013-06-04 23:56:00,71.6,66.5,29.92,ESE,104,0.0,7.0,84,0.00,,---,0.21,VWS V14.01,2013-06-05 04:56:00,